Terminal Aerodrome Forecast
Issued by NWS

Home | Current Version | Previous Version | Text Only | Print | Product List | Glossary On
Versions: 1 2 3 4 5 6 7 8 9 10 11 12 13 14 15 16 17 18 19 20 21 22 23 24 25 26 27 28 29 30
000
FTUS41 KALY 192300 RRA
TAFPSF
TAF
KPSF 192343Z 2000/2024 30010G16KT P6SM OVC015
     FM200200 33006KT P6SM OVC012
     FM201000 VRB03KT P6SM SCT012 BKN020
     FM201700 35004KT P6SM SCT020 BKN035=

USA.gov is the U.S. government's official web portal to all federal, state and local government web resources and services.